| time (UTC) | temp F | wind direction | speed knots | gust knots | rain 1hr in | rain 24hr in | rain mn in | humidity % | barometer mb |
| 20260502235204 | 58 | 102 | 0.9 | 1.7 | 0.00 | 0.01 | 0.00 | 82 | 1008.2 |
| 20260502234703 | 58 | 99 | 0.0 | 0.9 | 0.00 | 0.01 | 0.00 | 82 | 1008.1 |
| 20260502234219 | 58 | 99 | 0.0 | 1.7 | 0.00 | 0.01 | 0.00 | 82 | 1008.2 |
| 20260502233704 | 58 | 99 | 0.0 | 1.7 | 0.00 | 0.01 | 0.00 | 82 | 1008.2 |
| 20260502233205 | 58 | 99 | 0.0 | 0.9 | 0.00 | 0.01 | 0.00 | 82 | 1008.3 |
| 20260502232205 | 58 | 97 | 0.0 | 0.9 | 0.00 | 0.01 | 0.00 | 82 | 1008.3 |
| 20260502231705 | 58 | 97 | 0.0 | 0.9 | 0.00 | 0.01 | 0.00 | 82 | 1008.2 |
| 20260502231203 | 58 | 97 | 0.0 | 1.7 | 0.00 | 0.01 | 0.00 | 82 | 1008.2 |
| 20260502230730 | 58 | 97 | 0.0 | 1.7 | 0.00 | 0.01 | 0.00 | 82 | 1008.3 |
| 20260502230204 | 58 | 97 | 0.0 | 1.7 | 0.00 | 0.01 | 0.01 | 82 | 1008.2 |
| 20260502225705 | 58 | 97 | 0.0 | 0.0 | 0.00 | 0.01 | 0.01 | 82 | 1008.3 |
| 20260502225203 | 58 | 97 | 0.0 | 0.9 | 0.00 | 0.01 | 0.01 | 82 | 1008.2 |
| 20260502224704 | 58 | 97 | 0.0 | 2.6 | 0.00 | 0.01 | 0.01 | 82 | 1008.3 |
| 20260502224205 | 59 | 97 | 0.0 | 2.6 | 0.00 | 0.01 | 0.01 | 82 | 1008.3 |
| 20260502223704 | 59 | 97 | 0.0 | 2.6 | 0.00 | 0.01 | 0.01 | 82 | 1008.3 |
| 20260502223205 | 59 | 97 | 0.9 | 2.6 | 0.00 | 0.01 | 0.01 | 82 | 1008.4 |
| 20260502222704 | 59 | 97 | 0.0 | 2.6 | 0.00 | 0.01 | 0.01 | 82 | 1008.5 |
| 20260502222209 | 59 | 97 | 0.0 | 2.6 | 0.00 | 0.01 | 0.01 | 82 | 1008.4 |
| 20260502221705 | 59 | 97 | 0.9 | 2.6 | 0.00 | 0.01 | 0.01 | 82 | 1008.4 |
| 20260502220705 | 59 | 97 | 0.9 | 1.7 | 0.00 | 0.01 | 0.01 | 82 | 1008.5 |
| 20260502215707 | 59 | 97 | 0.0 | 1.7 | 0.00 | 0.01 | 0.01 | 82 | 1008.5 |
| 20260502215205 | 59 | 97 | 0.0 | 2.6 | 0.00 | 0.01 | 0.01 | 82 | 1008.3 |
| 20260502214704 | 59 | 97 | 0.0 | 2.6 | 0.00 | 0.01 | 0.01 | 82 | 1008.2 |
| 20260502214204 | 59 | 97 | 0.0 | 2.6 | 0.00 | 0.01 | 0.01 | 82 | 1008.3 |
| 20260502212704 | 59 | 97 | 0.9 | 2.6 | 0.00 | 0.01 | 0.01 | 82 | 1008.8 |
| 20260502212205 | 59 | 97 | 0.0 | 1.7 | 0.00 | 0.01 | 0.01 | 82 | 1008.6 |
| 20260502211704 | 59 | 97 | 0.0 | 1.7 | 0.00 | 0.01 | 0.01 | 82 | 1008.3 |
| 20260502211204 | 59 | 97 | 0.9 | 2.6 | 0.00 | 0.01 | 0.01 | 82 | 1008.6 |
| 20260502210705 | 59 | 97 | 0.0 | 2.6 | 0.00 | 0.01 | 0.01 | 82 | 1008.9 |
| 20260502210205 | 59 | 97 | 0.0 | 3.5 | 0.00 | 0.01 | 0.01 | 82 | 1008.9 |
| 20260502205738 | 60 | 97 | 0.9 | 4.3 | 0.00 | 0.01 | 0.01 | 82 | 1009.1 |
| 20260502205204 | 60 | 97 | 0.9 | 6.1 | 0.00 | 0.01 | 0.01 | 82 | 1009.1 |
| 20260502204703 | 60 | 103 | 1.7 | 6.1 | 0.00 | 0.01 | 0.01 | 81 | 1009.1 |
| 20260502204205 | 60 | 106 | 1.7 | 6.1 | 0.00 | 0.01 | 0.01 | 81 | 1009.2 |
| 20260502203704 | 60 | 92 | 1.7 | 4.3 | 0.00 | 0.01 | 0.01 | 81 | 1009.3 |
| 20260502203204 | 60 | 113 | 0.9 | 1.7 | 0.00 | 0.01 | 0.01 | 81 | 1009.4 |
| 20260502202705 | 60 | 100 | 0.9 | 4.3 | 0.00 | 0.01 | 0.01 | 81 | 1009.1 |
| 20260502201704 | 60 | 99 | 0.0 | 4.3 | 0.00 | 0.01 | 0.01 | 80 | 1008.9 |
| 20260502201209 | 60 | 103 | 0.9 | 4.3 | 0.00 | 0.01 | 0.01 | 80 | 1009.1 |
| 20260502200705 | 60 | 103 | 0.9 | 4.3 | 0.00 | 0.01 | 0.01 | 80 | 1009.3 |
| 20260502200204 | 60 | 109 | 1.7 | 4.3 | 0.00 | 0.01 | 0.01 | 80 | 1009.3 |
| 20260502195705 | 60 | 103 | 0.9 | 4.3 | 0.00 | 0.01 | 0.01 | 80 | 1009.1 |
| 20260502195206 | 60 | 94 | 1.7 | 4.3 | 0.00 | 0.01 | 0.01 | 80 | 1009.1 |
| 20260502194704 | 60 | 96 | 1.7 | 4.3 | 0.00 | 0.01 | 0.01 | 80 | 1009.2 |
| 20260502194205 | 60 | 86 | 0.9 | 3.5 | 0.00 | 0.01 | 0.01 | 80 | 1009.1 |
| 20260502193704 | 60 | 114 | 0.9 | 4.3 | 0.00 | 0.01 | 0.01 | 80 | 1009.2 |
| 20260502193205 | 60 | 116 | 0.9 | 4.3 | 0.00 | 0.01 | 0.01 | 80 | 1009.1 |
| 20260502192204 | 61 | 109 | 0.0 | 1.7 | 0.00 | 0.01 | 0.01 | 80 | 1009.1 |
| 20260502191204 | 61 | 109 | 0.0 | 3.5 | 0.00 | 0.01 | 0.01 | 79 | 1009.0 |
| 20260502190705 | 61 | 110 | 0.0 | 3.5 | 0.00 | 0.01 | 0.01 | 79 | 1009.1 |
| 20260502190205 | 61 | 110 | 0.0 | 3.5 | 0.00 | 0.01 | 0.01 | 79 | 1009.1 |
| 20260502185705 | 61 | 111 | 1.7 | 0.9 | 0.00 | 0.01 | 0.01 | 79 | 1009.3 |
| 20260502185204 | 61 | 104 | 0.0 | 0.9 | 0.00 | 0.01 | 0.01 | 79 | 1009.2 |
| 20260502184704 | 61 | 106 | 0.0 | 0.9 | 0.00 | 0.01 | 0.01 | 79 | 1009.2 |
| 20260502183704 | 61 | 106 | 0.0 | 1.7 | 0.00 | 0.01 | 0.01 | 79 | 1009.0 |
| 20260502183204 | 61 | 106 | 0.0 | 1.7 | 0.00 | 0.01 | 0.01 | 79 | 1009.1 |
| 20260502182704 | 61 | 106 | 0.0 | 2.6 | 0.01 | 0.01 | 0.01 | 78 | 1009.2 |
| 20260502182204 | 61 | 106 | 0.0 | 2.6 | 0.01 | 0.01 | 0.01 | 78 | 1009.3 |
| 20260502181706 | 61 | 104 | 0.0 | 4.3 | 0.01 | 0.01 | 0.01 | 78 | 1009.4 |
| 20260502181204 | 61 | 107 | 0.9 | 4.3 | 0.01 | 0.01 | 0.01 | 78 | 1009.6 |
| 20260502180704 | 61 | 111 | 0.0 | 4.3 | 0.01 | 0.01 | 0.01 | 79 | 1009.7 |
| 20260502180204 | 62 | 140 | 0.0 | 2.6 | 0.01 | 0.01 | 0.01 | 79 | 1009.6 |
| 20260502170204 | 65 | 212 | 0.9 | 4.3 | 0.00 | 0.00 | 0.00 | 70 | 1009.9 |
| 20260502163704 | 69 | 171 | 1.7 | 7.8 | 0.00 | 0.00 | 0.00 | 59 | 1010.1 |
| 20260502163204 | 69 | 104 | 1.7 | 7.8 | 0.00 | 0.00 | 0.00 | 56 | 1010.0 |
| 20260502162704 | 70 | 125 | 1.7 | 7.8 | 0.00 | 0.00 | 0.00 | 53 | 1010.0 |
| 20260502162204 | 70 | 93 | 1.7 | 7.8 | 0.00 | 0.00 | 0.00 | 51 | 1010.0 |
| 20260502161704 | 70 | 104 | 2.6 | 4.3 | 0.00 | 0.00 | 0.00 | 51 | 1010.0 |
| 20260502161204 | 71 | 97 | 1.7 | 4.3 | 0.00 | 0.00 | 0.00 | 51 | 1010.0 |
| 20260502160704 | 71 | 116 | 2.6 | 5.2 | 0.00 | 0.00 | 0.00 | 49 | 1010.0 |
| 20260502160205 | 71 | 83 | 2.6 | 5.2 | 0.00 | 0.00 | 0.00 | 49 | 1010.0 |
| 20260502151204 | 73 | 76 | 1.7 | 8.7 | 0.00 | 0.00 | 0.00 | 46 | 1010.6 |
| 20260502150703 | 73 | 104 | 2.6 | 8.7 | 0.00 | 0.00 | 0.00 | 46 | 1010.8 |
| 20260502130205 | 73 | 116 | 0.9 | 3.5 | 0.00 | 0.00 | 0.00 | 45 | 1012.5 |
| 20260502123205 | 72 | 124 | 1.7 | 4.3 | 0.00 | 0.00 | 0.00 | 46 | 1012.9 |
| 20260502122708 | 72 | 209 | 1.7 | 4.3 | 0.00 | 0.00 | 0.00 | 46 | 1013.0 |
| 20260502122205 | 72 | 190 | 0.9 | 4.3 | 0.00 | 0.00 | 0.00 | 46 | 1013.0 |
| 20260502121704 | 71 | 97 | 0.9 | 4.3 | 0.00 | 0.00 | 0.00 | 49 | 1013.0 |
| 20260502121205 | 71 | 111 | 0.9 | 4.3 | 0.00 | 0.00 | 0.00 | 49 | 1013.1 |
| 20260502120704 | 70 | 110 | 0.9 | 4.3 | 0.00 | 0.00 | 0.00 | 48 | 1013.2 |
| 20260502120204 | 70 | 248 | 0.9 | 4.3 | 0.00 | 0.00 | 0.00 | 48 | 1013.2 |
| 20260502115704 | 71 | 230 | 1.7 | 4.3 | 0.00 | 0.00 | 0.00 | 46 | 1013.3 |
| 20260502115204 | 71 | 93 | 0.9 | 4.3 | 0.00 | 0.00 | 0.00 | 46 | 1013.4 |
| 20260502114706 | 71 | 157 | 1.7 | 3.5 | 0.00 | 0.00 | 0.00 | 46 | 1013.6 |
| 20260502114206 | 70 | 104 | 0.9 | 3.5 | 0.00 | 0.00 | 0.00 | 48 | 1013.6 |
| 20260502113710 | 70 | 106 | 1.7 | 3.5 | 0.00 | 0.00 | 0.00 | 48 | 1013.7 |
| 20260502113204 | 69 | 252 | 0.9 | 2.6 | 0.00 | 0.00 | 0.00 | 50 | 1013.7 |
| 20260502112705 | 69 | 258 | 0.9 | 4.3 | 0.00 | 0.00 | 0.00 | 49 | 1013.7 |
| 20260502112204 | 68 | 258 | 0.9 | 4.3 | 0.00 | 0.00 | 0.00 | 47 | 1013.7 |
| 20260502111705 | 68 | 258 | 0.0 | 3.5 | 0.00 | 0.00 | 0.00 | 48 | 1013.8 |
| 20260502111204 | 68 | 254 | 0.9 | 4.3 | 0.00 | 0.00 | 0.00 | 52 | 1013.8 |
| 20260502110205 | 68 | 104 | 0.0 | 4.3 | 0.00 | 0.00 | 0.00 | 55 | 1014.3 |
| 20260502105704 | 67 | 104 | 1.7 | 2.6 | 0.00 | 0.00 | 0.00 | 54 | 1014.2 |
| 20260502105214 | 67 | 240 | 0.9 | 3.5 | 0.00 | 0.00 | 0.00 | 57 | 1014.2 |
| 20260502104705 | 67 | 269 | 0.0 | 3.5 | 0.00 | 0.00 | 0.00 | 55 | 1014.4 |
| 20260502104204 | 67 | 271 | 1.7 | 4.3 | 0.00 | 0.00 | 0.00 | 55 | 1014.3 |
| 20260502103705 | 67 | 158 | 0.9 | 4.3 | 0.00 | 0.00 | 0.00 | 56 | 1014.4 |
| 20260502103205 | 66 | 240 | 0.9 | 4.3 | 0.00 | 0.00 | 0.00 | 58 | 1014.4 |
| 20260502102704 | 66 | 255 | 1.7 | 3.5 | 0.00 | 0.00 | 0.00 | 57 | 1014.5 |
| 20260502101205 | 67 | 145 | 0.9 | 2.6 | 0.00 | 0.00 | 0.00 | 58 | 1014.6 |
| 20260502100705 | 67 | 154 | 0.9 | 3.5 | 0.00 | 0.00 | 0.00 | 57 | 1014.7 |
| 20260502100205 | 67 | 141 | 0.0 | 3.5 | 0.00 | 0.00 | 0.00 | 60 | 1014.7 |
| 20260502090704 | 61 | 233 | 0.0 | 4.3 | 0.00 | 0.00 | 0.00 | 70 | 1015.1 |
| 20260502070704 | 53 | 219 | 0.9 | 3.5 | 0.00 | 0.00 | 0.00 | 82 | 1015.8 |
| 20260502070205 | 53 | 214 | 1.7 | 3.5 | 0.00 | 0.00 | 0.00 | 82 | 1015.7 |
| 20260502065705 | 53 | 214 | 0.0 | 3.5 | 0.00 | 0.00 | 0.00 | 82 | 1015.7 |
| 20260502065205 | 53 | 212 | 1.7 | 3.5 | 0.00 | 0.00 | 0.00 | 81 | 1015.7 |
| 20260502064704 | 53 | 224 | 1.7 | 5.2 | 0.00 | 0.00 | 0.00 | 81 | 1015.7 |
| 20260502063704 | 53 | 214 | 0.9 | 5.2 | 0.00 | 0.00 | 0.00 | 80 | 1015.6 |
| 20260502063235 | 52 | 240 | 2.6 | 3.5 | 0.00 | 0.00 | 0.00 | 80 | 1015.6 |
| 20260502062705 | 52 | 217 | 0.9 | 3.5 | 0.00 | 0.00 | 0.00 | 79 | 1015.6 |
| 20260502061706 | 52 | 171 | 0.9 | 2.6 | 0.00 | 0.00 | 0.00 | 79 | 1015.5 |
| 20260502061205 | 52 | 179 | 0.0 | 3.5 | 0.00 | 0.00 | 0.00 | 79 | 1015.6 |
| 20260502060704 | 52 | 179 | 0.9 | 3.5 | 0.00 | 0.00 | 0.00 | 79 | 1015.7 |
| 20260502060204 | 52 | 179 | 0.9 | 3.5 | 0.00 | 0.00 | 0.00 | 78 | 1015.6 |
| 20260502055704 | 52 | 179 | 0.9 | 1.7 | 0.00 | 0.00 | 0.00 | 78 | 1015.6 |
| 20260502055204 | 52 | 178 | 0.0 | 1.7 | 0.00 | 0.00 | 0.00 | 78 | 1015.6 |
| 20260502054705 | 51 | 178 | 0.0 | 1.7 | 0.00 | 0.00 | 0.00 | 78 | 1015.5 |
| 20260502053705 | 51 | 178 | 0.0 | 2.6 | 0.00 | 0.00 | 0.00 | 78 | 1015.6 |
| 20260502052705 | 51 | 178 | 0.0 | 2.6 | 0.00 | 0.00 | 0.00 | 78 | 1015.7 |
| 20260502052205 | 51 | 178 | 0.9 | 1.7 | 0.00 | 0.00 | 0.00 | 79 | 1015.7 |
| 20260502050706 | 51 | 178 | 0.0 | 1.7 | 0.00 | 0.00 | 0.00 | 79 | 1015.6 |
| 20260502050204 | 51 | 178 | 0.0 | 1.7 | 0.00 | 0.00 | 0.00 | 79 | 1015.7 |
| 20260502045704 | 51 | 178 | 0.0 | 2.6 | 0.00 | 0.00 | 0.00 | 79 | 1015.7 |
| 20260502045204 | 51 | 178 | 0.0 | 2.6 | 0.00 | 0.00 | 0.00 | 79 | 1015.6 |
| 20260502044704 | 51 | 178 | 0.0 | 2.6 | 0.00 | 0.00 | 0.00 | 79 | 1015.6 |
| 20260502044205 | 51 | 178 | 0.9 | 1.7 | 0.00 | 0.00 | 0.00 | 80 | 1015.7 |
| 20260502043704 | 51 | 173 | 0.0 | 1.7 | 0.00 | 0.00 | 0.00 | 80 | 1015.6 |
| 20260502043205 | 51 | 173 | 0.0 | 1.7 | 0.00 | 0.00 | 0.00 | 80 | 1015.6 |
| 20260502042705 | 51 | 173 | 0.0 | 1.7 | 0.00 | 0.00 | 0.00 | 80 | 1015.6 |
| 20260502042204 | 51 | 173 | 0.0 | 2.6 | 0.00 | 0.00 | 0.00 | 80 | 1015.5 |
| 20260502041704 | 51 | 173 | 0.0 | 2.6 | 0.00 | 0.00 | 0.00 | 80 | 1015.5 |
| 20260502041205 | 51 | 173 | 0.0 | 2.6 | 0.00 | 0.00 | 0.00 | 81 | 1015.6 |
| 20260502040704 | 51 | 175 | 0.9 | 1.7 | 0.00 | 0.00 | 0.00 | 81 | 1015.6 |
| 20260502040204 | 51 | 175 | 0.0 | 1.7 | 0.00 | 0.00 | 0.00 | 81 | 1015.6 |
| 20260502035704 | 51 | 175 | 0.0 | 1.7 | 0.00 | 0.00 | 0.00 | 81 | 1015.5 |
| 20260502035204 | 51 | 175 | 0.0 | 1.7 | 0.00 | 0.00 | 0.00 | 81 | 1015.6 |
| 20260502034704 | 51 | 175 | 0.0 | 0.9 | 0.00 | 0.00 | 0.00 | 82 | 1015.7 |
| 20260502034205 | 51 | 175 | 0.0 | 0.9 | 0.00 | 0.00 | 0.00 | 82 | 1015.7 |
| 20260502033710 | 52 | 175 | 0.0 | 2.6 | 0.00 | 0.00 | 0.00 | 82 | 1015.8 |
| 20260502033205 | 52 | 175 | 0.0 | 2.6 | 0.00 | 0.00 | 0.00 | 82 | 1015.8 |
| 20260502032705 | 52 | 175 | 0.0 | 2.6 | 0.00 | 0.00 | 0.00 | 82 | 1015.9 |
| 20260502032204 | 52 | 175 | 0.0 | 1.7 | 0.00 | 0.00 | 0.00 | 82 | 1015.9 |
| 20260502031705 | 52 | 175 | 0.0 | 1.7 | 0.00 | 0.00 | 0.00 | 82 | 1015.9 |
| 20260502031204 | 52 | 175 | 0.0 | 1.7 | 0.00 | 0.00 | 0.00 | 82 | 1015.9 |
| 20260502030703 | 52 | 175 | 0.0 | 2.6 | 0.00 | 0.00 | 0.00 | 82 | 1015.8 |
| 20260502030204 | 52 | 175 | 0.0 | 3.5 | 0.00 | 0.00 | 0.00 | 82 | 1015.9 |
| 20260502025704 | 52 | 175 | 0.0 | 3.5 | 0.00 | 0.00 | 0.00 | 83 | 1015.8 |
| 20260502025205 | 52 | 175 | 0.9 | 3.5 | 0.00 | 0.00 | 0.00 | 83 | 1015.9 |
| 20260502024704 | 52 | 175 | 0.0 | 3.5 | 0.00 | 0.00 | 0.00 | 83 | 1015.9 |
| 20260502024204 | 52 | 175 | 0.0 | 3.5 | 0.00 | 0.00 | 0.00 | 83 | 1015.9 |
| 20260502023704 | 52 | 173 | 0.0 | 1.7 | 0.00 | 0.00 | 0.00 | 83 | 1015.9 |
| 20260502023205 | 52 | 173 | 0.0 | 1.7 | 0.00 | 0.00 | 0.00 | 83 | 1015.8 |
| 20260502022704 | 53 | 173 | 0.0 | 1.7 | 0.00 | 0.00 | 0.00 | 83 | 1015.9 |
| 20260502022205 | 53 | 173 | 0.0 | 0.9 | 0.00 | 0.00 | 0.00 | 83 | 1015.8 |
| 20260502021705 | 53 | 173 | 0.0 | 0.9 | 0.00 | 0.00 | 0.00 | 83 | 1015.9 |
| 20260502021204 | 53 | 173 | 0.0 | 0.9 | 0.00 | 0.00 | 0.00 | 83 | 1015.8 |
| 20260502020704 | 53 | 173 | 0.0 | 1.7 | 0.00 | 0.00 | 0.00 | 83 | 1015.8 |
| 20260502015704 | 53 | 173 | 0.0 | 1.7 | 0.00 | 0.00 | 0.00 | 83 | 1015.9 |
| 20260502015205 | 53 | 173 | 0.0 | 1.7 | 0.00 | 0.00 | 0.00 | 82 | 1016.0 |
| 20260502014706 | 53 | 173 | 0.0 | 0.9 | 0.00 | 0.00 | 0.00 | 82 | 1016.0 |
| 20260502014204 | 53 | 173 | 0.0 | 0.9 | 0.00 | 0.00 | 0.00 | 82 | 1016.0 |
| 20260502013705 | 53 | 173 | 0.0 | 1.7 | 0.00 | 0.00 | 0.00 | 82 | 1016.1 |
| 20260502013204 | 54 | 173 | 0.0 | 1.7 | 0.00 | 0.00 | 0.00 | 82 | 1016.2 |
| 20260502012714 | 54 | 173 | 0.0 | 0.9 | 0.00 | 0.00 | 0.00 | 82 | 1016.3 |
| 20260502012204 | 54 | 173 | 0.0 | 1.7 | 0.00 | 0.00 | 0.00 | 82 | 1016.3 |
| 20260502011705 | 54 | 173 | 0.0 | 1.7 | 0.00 | 0.00 | 0.00 | 81 | 1016.4 |
| 20260502011205 | 54 | 173 | 0.0 | 1.7 | 0.00 | 0.00 | 0.00 | 81 | 1016.4 |
| 20260502010205 | 55 | 173 | 0.0 | 1.7 | 0.00 | 0.00 | 0.00 | 80 | 1016.4 |
| 20260502005707 | 55 | 173 | 0.0 | 1.7 | 0.00 | 0.00 | 0.00 | 80 | 1016.5 |
| 20260502005204 | 55 | 173 | 0.0 | 1.7 | 0.00 | 0.00 | 0.00 | 80 | 1016.7 |
| 20260502004705 | 55 | 173 | 0.9 | 1.7 | 0.00 | 0.00 | 0.00 | 79 | 1016.8 |
| 20260502002703 | 56 | 173 | 0.0 | 2.6 | 0.00 | 0.00 | 0.00 | 77 | 1016.9 |
| 20260502002206 | 56 | 173 | 0.9 | 1.7 | 0.00 | 0.00 | 0.00 | 77 | 1016.9 |
| 20260502001704 | 57 | 172 | 0.9 | 3.5 | 0.00 | 0.00 | 0.00 | 76 | 1017.0 |
| 20260502001204 | 57 | 171 | 0.0 | 3.5 | 0.00 | 0.00 | 0.00 | 76 | 1017.0 |
| 20260502000704 | 57 | 171 | 0.9 | 3.5 | 0.00 | 0.00 | 0.00 | 76 | 1017.1 |
| 20260501235705 | 58 | 171 | 0.0 | 3.5 | 0.00 | 0.00 | 0.00 | 75 | 1017.0 |